Current weather by "City, St" or "zip code"  
 

Current Conditions: Phoenix, Phoenix Sky Harbor International Airport, AZ

Partly Cloudy


68.0 F

Last Updated on Oct 30 2020, 10:51 pm MST
Humidity: 32%
Wind Speed: N 0.0 mph
Barometer 29.97 in
Dewpoint: 37.0 F
Visibility: 10.00 mi
Precip: --
Heat Index: NA
Wind Chill: NA
Current conditions at:

Phoenix, Phoenix Sky Harbor International Airport, AZ (KPHX)

Lat: 33.427799 Lon: 112.003465

Local Radar Image active severe weather and emergency alerts image image weather storm and storm spotter reports image weather observation monitoring service image
Local
Radar
Active
Alerts
Storm Reports Obs
Monitoring

Sign-up For Email & Text Message Weather Alert Notification Services



Advertise Here

Observation History for Phoenix, Phoenix Sky Harbor International Airport, AZ


Time Wind
(mph)
Vis
(mi)
Weather Precip (in) Temperature (F) Relative
Humidity
Wind
Chill
(F)
Heat
Index
(F)
Pressure
Air Dwpt altimeter
(in)
sea level
(mb)
Rmks
10:51 pm MST N 0.0 10.00 Partly Cloudy -- 68.0 37.0 32% NA NA 29.97 1013.4
9:51 pm MST N 0.0 10.00 Partly Cloudy -- 72.0 36.0 27% NA NA 29.96 1013.1
8:51 pm MST N 0.0 10.00 Partly Cloudy -- 75.0 35.1 23% NA NA 29.94 1012.6
7:51 pm MST W 5.8 10.00 Partly Cloudy -- 78.0 34.0 20% NA NA 29.94 1012.4
6:51 pm MST SW 5.8 10.00 Mostly Cloudy -- 77.0 35.1 22% NA NA 29.92 1012.0
5:51 pm MST W 3.5 10.00 Mostly Cloudy -- 83.0 33.1 17% NA 80 29.91 1011.4
4:51 pm MST N 0.0 10.00 Mostly Cloudy -- 85.0 30.9 14% NA 82 29.89 1011.0
3:51 pm MST N 0.0 10.00 Mostly Cloudy -- 85.0 30.9 14% NA 82 29.91 1011.4
2:51 pm MST E 5.8 10.00 Mostly Cloudy -- 85.0 30.9 14% NA 82 29.92 1011.6
1:51 pm MST E 6.9 10.00 Mostly Cloudy -- 86.0 32.0 14% NA 83 29.94 1012.5
12:51 pm MST E 5.8 10.00 Mostly Cloudy -- 84.0 32.0 15% NA 81 29.97 1013.5
11:51 am MST E 8.1 10.00 A Few Clouds -- 83.0 32.0 16% NA 80 30.01 1014.7
10:51 am MST E 6.9 10.00 A Few Clouds -- 80.0 32.0 17% NA 78 30.04 1015.7
9:51 am MST E 11.5 10.00 A Few Clouds -- 77.0 33.1 20% NA NA 30.04 1015.9
8:51 am MST E 10.4 10.00 A Few Clouds -- 73.0 35.1 25% NA NA 30.05 1016.2
7:51 am MST SE 4.6 10.00 A Few Clouds -- 67.0 35.1 31% NA NA 30.03 1015.8
6:51 am MST SE 3.5 10.00 A Few Clouds -- 62.0 34.0 35% NA NA 30.01 1015.1
5:51 am MST E 5.8 10.00 A Few Clouds -- 63.0 33.1 33% 63 NA 30.00 1014.7
4:51 am MST SE 3.5 10.00 A Few Clouds -- 61.0 35.1 38% NA NA 30.00 1014.5
3:51 am MST SE 3.5 10.00 Partly Cloudy -- 61.0 35.1 38% NA NA 29.99 1014.2
2:51 am MST E 5.8 10.00 Partly Cloudy -- 63.0 34.0 34% 63 NA 29.99 1014.3
1:51 am MST SE 3.5 10.00 Partly Cloudy -- 62.0 34.0 35% NA NA 30.00 1014.5
12:51 am MST N 0.0 10.00 Partly Cloudy -- 64.0 34.0 33% NA NA 30.00 1014.6
11:51 pm MST N 0.0 10.00 Mostly Cloudy -- 65.0 34.0 32% NA NA 30.00 1014.5

Regional Weather Observation


Phoenix, Phoenix Sky Harbor International Airport, AZ (KPHX)

Partly Cloudy
68.0 F

Glendale, Glendale Municipal Airport, AZ (KGEU)

Mostly Cloudy
72.0 F

Luke Air Force Base / Phoenix, AZ (KLUF)

Fair
63.0 F

Goodyear Municipal, AZ (KGYR)

Mostly Cloudy
70.0 F

Scottsdale Airport, AZ (KSDL)

Fair
65.0 F

Buckeye Municipal Airport, AZ (KBXK)

NULL
NULL F